| time (UTC) | temp F | wind direction | speed MPH | gust MPH | rain 1hr in | rain 24hr in | rain mn in | humidity % | barometer mb |
| 20260508023006 | 50 | 340 | 6.0 | 12.0 | 0.00 | 0.25 | 0.11 | 93 | 1015.3 |
| 20260508022006 | 50 | 328 | 6.0 | 10.0 | 0.00 | 0.25 | 0.11 | 93 | 1015.2 |
| 20260508021006 | 50 | 321 | 5.0 | 9.0 | 0.00 | 0.25 | 0.11 | 93 | 1015.1 |
| 20260508020011 | 50 | 10 | 6.0 | 11.0 | 0.01 | 0.25 | 0.11 | 93 | 1015.0 |
| 20260508015010 | 50 | 343 | 6.0 | 9.0 | 0.01 | 0.25 | 0.11 | 93 | 1015.0 |
| 20260508013006 | 50 | 344 | 4.0 | 8.0 | 0.01 | 0.25 | 0.11 | 93 | 1014.9 |
| 20260508011006 | 50 | 24 | 6.0 | 10.0 | 0.02 | 0.25 | 0.11 | 93 | 1015.0 |
| 20260508010009 | 50 | 5 | 5.0 | 10.0 | 0.02 | 0.24 | 0.10 | 93 | 1014.9 |
| 20260508005006 | 50 | 355 | 6.0 | 9.0 | 0.06 | 0.24 | 0.10 | 93 | 1015.0 |
| 20260508004006 | 50 | 360 | 5.0 | 9.0 | 0.08 | 0.24 | 0.10 | 93 | 1014.9 |
| 20260508003008 | 51 | 344 | 6.0 | 9.0 | 0.10 | 0.24 | 0.10 | 93 | 1015.1 |
| 20260508002009 | 51 | 329 | 4.0 | 9.0 | 0.10 | 0.24 | 0.10 | 94 | 1015.2 |
| 20260508001006 | 51 | 338 | 2.0 | 5.0 | 0.09 | 0.24 | 0.09 | 94 | 1015.2 |
| 20260508000009 | 51 | 317 | 2.0 | 4.0 | 0.08 | 0.22 | 0.08 | 93 | 1015.1 |
| 20260507235006 | 51 | 349 | 3.0 | 6.0 | 0.04 | 0.18 | 0.04 | 93 | 1015.1 |
| 20260507234005 | 51 | 17 | 3.0 | 6.0 | 0.02 | 0.17 | 0.02 | 93 | 1015.1 |
| 20260507233008 | 51 | 291 | 6.0 | 12.0 | 0.00 | 0.14 | 0.00 | 93 | 1015.0 |
| 20260507232005 | 51 | 329 | 8.0 | 14.0 | 0.00 | 0.14 | 0.00 | 93 | 1015.1 |
| 20260507231006 | 52 | 346 | 6.0 | 12.0 | 0.00 | 0.14 | 0.00 | 93 | 1015.1 |
| 20260507230013 | 52 | 331 | 6.0 | 11.0 | 0.00 | 0.14 | 0.00 | 93 | 1015.1 |
| 20260507223005 | 53 | 322 | 5.0 | 10.0 | 0.00 | 0.14 | 0.00 | 93 | 1015.1 |
| 20260507221007 | 53 | 326 | 3.0 | 6.0 | 0.01 | 0.14 | 0.00 | 92 | 1014.9 |
| 20260507220011 | 53 | 316 | 5.0 | 8.0 | 0.01 | 0.14 | 0.00 | 92 | 1015.0 |
| 20260507215004 | 53 | 322 | 6.0 | 11.0 | 0.01 | 0.14 | 0.14 | 92 | 1014.8 |
| 20260507214004 | 53 | 317 | 5.0 | 10.0 | 0.01 | 0.14 | 0.14 | 92 | 1014.6 |
| 20260507213006 | 54 | 344 | 8.0 | 12.0 | 0.01 | 0.14 | 0.14 | 92 | 1014.5 |
| 20260507212003 | 54 | 339 | 5.0 | 10.0 | 0.01 | 0.14 | 0.14 | 92 | 1014.5 |
| 20260507211004 | 54 | 331 | 4.0 | 9.0 | 0.00 | 0.13 | 0.13 | 92 | 1014.4 |
| 20260507210007 | 54 | 355 | 4.0 | 8.0 | 0.00 | 0.13 | 0.13 | 92 | 1014.1 |
| 20260507205005 | 54 | 350 | 5.0 | 10.0 | 0.00 | 0.13 | 0.13 | 92 | 1014.1 |
| 20260507204004 | 54 | 332 | 4.0 | 8.0 | 0.00 | 0.13 | 0.13 | 92 | 1014.2 |
| 20260507203003 | 54 | 321 | 4.0 | 8.0 | 0.00 | 0.13 | 0.13 | 92 | 1014.2 |
| 20260507202006 | 54 | 316 | 4.0 | 9.0 | 0.00 | 0.13 | 0.13 | 92 | 1014.1 |
| 20260507201003 | 54 | 5 | 7.0 | 12.0 | 0.00 | 0.13 | 0.13 | 92 | 1013.9 |
| 20260507200005 | 54 | 282 | 8.0 | 13.0 | 0.00 | 0.13 | 0.13 | 92 | 1014.2 |
| 20260507195111 | 55 | 294 | 5.0 | 9.0 | 0.00 | 0.13 | 0.13 | 91 | 1014.2 |
| 20260507194008 | 55 | 270 | 4.0 | 7.0 | 0.01 | 0.13 | 0.13 | 91 | 1014.0 |
| 20260507193008 | 55 | 306 | 3.0 | 4.0 | 0.07 | 0.13 | 0.13 | 90 | 1013.8 |
| 20260507192005 | 55 | 344 | 5.0 | 9.0 | 0.13 | 0.13 | 0.13 | 89 | 1013.5 |
| 20260507191005 | 55 | 336 | 6.0 | 9.0 | 0.13 | 0.13 | 0.13 | 88 | 1013.3 |
| 20260507184004 | 56 | 338 | 7.0 | 13.0 | 0.13 | 0.13 | 0.13 | 87 | 1013.3 |
| 20260507183004 | 56 | 311 | 9.0 | 15.0 | 0.06 | 0.06 | 0.06 | 84 | 1013.2 |
| 20260507182006 | 59 | 290 | 9.0 | 13.0 | 0.00 | 0.00 | 0.00 | 75 | 1013.0 |
| 20260507181004 | 60 | 290 | 6.0 | 12.0 | 0.00 | 0.00 | 0.00 | 73 | 1012.8 |
| 20260507180009 | 60 | 355 | 7.0 | 12.0 | 0.00 | 0.00 | 0.00 | 70 | 1012.3 |
| 20260507175005 | 60 | 341 | 8.0 | 13.0 | 0.00 | 0.00 | 0.00 | 69 | 1012.0 |
| 20260507174004 | 61 | 329 | 6.0 | 11.0 | 0.00 | 0.00 | 0.00 | 66 | 1011.8 |
| 20260507173004 | 61 | 343 | 7.0 | 13.0 | 0.00 | 0.00 | 0.00 | 64 | 1011.6 |
| 20260507172006 | 62 | 342 | 5.0 | 9.0 | 0.00 | 0.00 | 0.00 | 64 | 1011.4 |
| 20260507171007 | 62 | 343 | 7.0 | 14.0 | 0.00 | 0.00 | 0.00 | 63 | 1011.3 |
| 20260507170009 | 62 | 340 | 7.0 | 12.0 | 0.00 | 0.00 | 0.00 | 63 | 1011.2 |
| 20260507165005 | 63 | 328 | 7.0 | 12.0 | 0.00 | 0.00 | 0.00 | 60 | 1011.0 |
| 20260507164005 | 64 | 285 | 8.0 | 14.0 | 0.00 | 0.00 | 0.00 | 56 | 1010.9 |
| 20260507163004 | 65 | 273 | 8.0 | 15.0 | 0.00 | 0.00 | 0.00 | 54 | 1010.7 |
| 20260507162004 | 66 | 240 | 6.0 | 10.0 | 0.00 | 0.00 | 0.00 | 60 | 1010.5 |
| 20260507161004 | 66 | 182 | 7.0 | 11.0 | 0.00 | 0.00 | 0.00 | 59 | 1010.4 |
| 20260507155007 | 67 | 211 | 9.0 | 14.0 | 0.00 | 0.00 | 0.00 | 58 | 1010.4 |
| 20260507154009 | 67 | 238 | 7.0 | 12.0 | 0.00 | 0.00 | 0.00 | 57 | 1010.5 |
| 20260507153005 | 67 | 188 | 9.0 | 17.0 | 0.00 | 0.00 | 0.00 | 57 | 1010.6 |
| 20260507151007 | 68 | 169 | 7.0 | 12.0 | 0.00 | 0.00 | 0.00 | 59 | 1010.4 |
| 20260507145005 | 68 | 192 | 8.0 | 14.0 | 0.00 | 0.00 | 0.00 | 56 | 1010.3 |
| 20260507144007 | 68 | 209 | 9.0 | 13.0 | 0.00 | 0.00 | 0.00 | 56 | 1010.4 |
| 20260507143006 | 69 | 181 | 9.0 | 14.0 | 0.00 | 0.00 | 0.00 | 55 | 1010.3 |
| 20260507142004 | 69 | 187 | 7.0 | 14.0 | 0.00 | 0.00 | 0.00 | 56 | 1010.3 |
| 20260507140006 | 69 | 224 | 7.0 | 13.0 | 0.00 | 0.00 | 0.00 | 55 | 1010.3 |
| 20260507135004 | 69 | 224 | 9.0 | 16.0 | 0.00 | 0.00 | 0.00 | 52 | 1010.3 |
| 20260507134003 | 70 | 173 | 8.0 | 16.0 | 0.00 | 0.00 | 0.00 | 53 | 1010.2 |
| 20260507133004 | 69 | 236 | 8.0 | 13.0 | 0.00 | 0.00 | 0.00 | 51 | 1010.4 |
| 20260507132005 | 70 | 255 | 8.0 | 16.0 | 0.00 | 0.00 | 0.00 | 50 | 1010.4 |
| 20260507131004 | 69 | 222 | 9.0 | 14.0 | 0.00 | 0.00 | 0.00 | 51 | 1010.5 |
| 20260507130006 | 69 | 256 | 8.0 | 17.0 | 0.00 | 0.00 | 0.00 | 52 | 1010.6 |
| 20260507125004 | 70 | 257 | 8.0 | 15.0 | 0.00 | 0.00 | 0.00 | 51 | 1010.4 |
| 20260507124003 | 70 | 267 | 8.0 | 13.0 | 0.00 | 0.00 | 0.00 | 50 | 1010.4 |
| 20260507122004 | 69 | 255 | 8.0 | 14.0 | 0.00 | 0.00 | 0.00 | 52 | 1010.6 |
| 20260507121006 | 69 | 257 | 9.0 | 14.0 | 0.00 | 0.00 | 0.00 | 56 | 1010.6 |
| 20260507120008 | 68 | 276 | 10.0 | 19.0 | 0.00 | 0.00 | 0.00 | 57 | 1010.7 |
| 20260507114005 | 70 | 281 | 7.0 | 12.0 | 0.00 | 0.00 | 0.00 | 56 | 1010.5 |
| 20260507112005 | 68 | 267 | 7.0 | 13.0 | 0.00 | 0.00 | 0.00 | 57 | 1010.6 |
| 20260507111006 | 68 | 171 | 5.0 | 13.0 | 0.00 | 0.00 | 0.00 | 61 | 1010.6 |
| 20260507110008 | 67 | 162 | 4.0 | 10.0 | 0.00 | 0.00 | 0.00 | 62 | 1010.4 |
| 20260507105007 | 68 | 200 | 6.0 | 11.0 | 0.00 | 0.00 | 0.00 | 60 | 1010.5 |
| 20260507104005 | 68 | 211 | 8.0 | 11.0 | 0.00 | 0.00 | 0.00 | 58 | 1010.5 |
| 20260507103005 | 67 | 205 | 8.0 | 13.0 | 0.00 | 0.00 | 0.00 | 60 | 1010.5 |
| 20260507102007 | 67 | 238 | 7.0 | 14.0 | 0.00 | 0.00 | 0.00 | 60 | 1010.4 |
| 20260507101005 | 67 | 192 | 7.0 | 10.0 | 0.00 | 0.00 | 0.00 | 62 | 1010.3 |
| 20260507095005 | 67 | 257 | 6.0 | 12.0 | 0.00 | 0.00 | 0.00 | 61 | 1010.3 |
| 20260507094005 | 67 | 264 | 5.0 | 9.0 | 0.00 | 0.00 | 0.00 | 59 | 1010.2 |
| 20260507092006 | 68 | 217 | 7.0 | 11.0 | 0.00 | 0.00 | 0.00 | 61 | 1010.2 |
| 20260507091005 | 67 | 194 | 5.0 | 9.0 | 0.00 | 0.00 | 0.00 | 62 | 1010.1 |
| 20260507085006 | 65 | 215 | 6.0 | 12.0 | 0.00 | 0.00 | 0.00 | 66 | 1010.0 |
| 20260507084005 | 66 | 246 | 6.0 | 9.0 | 0.00 | 0.00 | 0.00 | 66 | 1009.9 |
| 20260507083005 | 65 | 242 | 5.0 | 12.0 | 0.00 | 0.00 | 0.00 | 67 | 1009.8 |
| 20260507082005 | 65 | 186 | 6.0 | 14.0 | 0.00 | 0.00 | 0.00 | 67 | 1009.8 |
| 20260507081005 | 64 | 237 | 7.0 | 10.0 | 0.00 | 0.00 | 0.00 | 69 | 1009.8 |
| 20260507080008 | 63 | 261 | 8.0 | 14.0 | 0.00 | 0.00 | 0.00 | 70 | 1009.8 |
| 20260507075005 | 63 | 178 | 7.0 | 13.0 | 0.00 | 0.00 | 0.00 | 72 | 1009.7 |
| 20260507074005 | 63 | 240 | 8.0 | 13.0 | 0.00 | 0.00 | 0.00 | 73 | 1009.7 |
| 20260507071005 | 62 | 253 | 7.0 | 12.0 | 0.00 | 0.00 | 0.00 | 75 | 1009.3 |
| 20260507065005 | 61 | 235 | 7.0 | 13.0 | 0.00 | 0.00 | 0.00 | 76 | 1009.2 |
| 20260507064005 | 60 | 241 | 9.0 | 16.0 | 0.00 | 0.00 | 0.00 | 78 | 1009.1 |
| 20260507063005 | 60 | 202 | 8.0 | 16.0 | 0.00 | 0.00 | 0.00 | 78 | 1008.9 |
| 20260507061005 | 58 | 182 | 3.0 | 6.0 | 0.00 | 0.00 | 0.00 | 82 | 1008.8 |
| 20260507060009 | 58 | 236 | 5.0 | 9.0 | 0.00 | 0.00 | 0.00 | 82 | 1008.9 |
| 20260507055006 | 59 | 250 | 3.0 | 7.0 | 0.00 | 0.00 | 0.00 | 82 | 1008.8 |
| 20260507054005 | 58 | 273 | 4.0 | 7.0 | 0.00 | 0.00 | 0.00 | 83 | 1008.5 |
| 20260507053005 | 58 | 234 | 3.0 | 5.0 | 0.00 | 0.00 | 0.00 | 84 | 1008.3 |
| 20260507052005 | 57 | 217 | 2.0 | 4.0 | 0.00 | 0.00 | 0.00 | 85 | 1008.3 |
| 20260507051004 | 56 | 202 | 3.0 | 6.0 | 0.00 | 0.00 | 0.00 | 86 | 1008.2 |
| 20260507050006 | 56 | 209 | 4.0 | 6.0 | 0.00 | 0.00 | 0.00 | 86 | 1008.2 |
| 20260507045004 | 56 | 199 | 3.0 | 6.0 | 0.00 | 0.00 | 0.00 | 86 | 1008.0 |
| 20260507044005 | 56 | 279 | 3.0 | 5.0 | 0.00 | 0.00 | 0.00 | 86 | 1007.9 |
| 20260507043004 | 56 | 265 | 3.0 | 7.0 | 0.00 | 0.00 | 0.00 | 86 | 1007.9 |
| 20260507042004 | 56 | 323 | 3.0 | 6.0 | 0.00 | 0.00 | 0.00 | 86 | 1007.7 |
| 20260507041005 | 56 | 290 | 3.0 | 5.0 | 0.00 | 0.00 | 0.00 | 86 | 1007.6 |
| 20260507040007 | 56 | 277 | 3.0 | 5.0 | 0.00 | 0.00 | 0.00 | 87 | 1007.4 |
| 20260507033005 | 55 | 281 | 3.0 | 7.0 | 0.00 | 0.00 | 0.00 | 87 | 1007.3 |
| 20260507032010 | 55 | 282 | 3.0 | 7.0 | 0.00 | 0.00 | 0.00 | 87 | 1007.2 |
| 20260507031007 | 55 | 286 | 3.0 | 7.0 | 0.00 | 0.00 | 0.00 | 87 | 1007.3 |
| 20260507030009 | 55 | 278 | 4.0 | 7.0 | 0.00 | 0.00 | 0.00 | 87 | 1007.1 |
| 20260507025007 | 55 | 286 | 5.0 | 9.0 | 0.00 | 0.00 | 0.00 | 87 | 1007.0 |
| 20260507024006 | 55 | 285 | 7.0 | 12.0 | 0.00 | 0.00 | 0.00 | 86 | 1006.9 |